This demonstration page uses our WeatherBlox Daily Observations layout. Learn more.

Left ArrowRight Arrow

Hourly Observations for May 21, 2015

Temp ( °F °C ) Dew Point ( °F °C ) Humidity (%) Winds ( mph kmh ) Pressure ( in mb ) Visibility ( mi km ) Precip ( " mm )
12:51 am 00:51 Clear 68 20 25 -3.9 20 20 NNW 12 19 29.79 1009 10 16 0.00 0.00
1:51 am 01:51 Clear 67 19.4 27 -2.8 22 22 WNW 3 6 29.78 1009 10 16 0.00 0.00
2:51 am 02:51 Clear 62 16.7 25 -3.9 24 24 SSE 3 6 29.79 1009 10 16 0.00 0.00
3:51 am 03:51 Clear 59 15 24 -4.4 26 26 ENE 6 9 29.79 1009 10 16 0.00 0.00
4:51 am 04:51 Clear 57 13.9 24 -4.4 28 28 S 5 7 29.80 1009 10 16 0.00 0.00
5:51 am 05:51 Sunny 60 15.6 25 -3.9 26 26 E 6 9 29.80 1009 10 16 0.00 0.00
6:51 am 06:51 Sunny 65 18.3 26 -3.3 23 23 ESE 7 11 29.81 1010 10 16 0.00 0.00
7:51 am 07:51 Sunny 71 21.7 21 -6.1 15 15 SE 10 17 29.82 1010 10 16 0.00 0.00
8:51 am 08:51 Sunny 74 23.3 22 -5.6 14 14 ESE 7 11 29.80 1009 10 16 0.00 0.00
9:51 am 09:51 Sunny 77 25 28 -2.2 16 16 SE 12 19 29.78 1008 10 16 0.00 0.00
10:51 am 10:51 Sunny 80 26.7 30 -1.1 16 16 SSE 16 26 29.76 1008 10 16 0.00 0.00
11:51 am 11:51 Sunny 83 28.3 30 -1.1 15 15 S 16 26 29.75 1007 10 16 0.00 0.00
12:38 pm 12:38 Sunny 85 29.4 28 -2.2 13 13 S 20 31 29.68 1005 10 16 0.00 0.00
12:51 pm 12:51 Sunny 83 28.3 27 -2.8 13 13 S 13 20 29.72 1007 10 16 0.00 0.00
1:51 pm 13:51 Sunny 84 28.9 23 -5 10 10 S 13 20 29.69 1006 10 16 0.00 0.00
2:51 pm 14:51 Sunny 86 30 25 -3.9 11 11 SSW 12 19 29.65 1004 10 16 0.00 0.00
3:11 pm 15:11 Sunny 88 31.1 22 -5.6 9 9 SSW 18 30 29.50 999 10 16 0.00 0.00
3:51 pm 15:51 Sunny 88 31.1 17 -8.3 7 7 SSW 16 26 29.63 1003 10 16 0.00 0.00
4:51 pm 16:51 Sunny 85 29.4 14 -10 7 7 SW 16 26 29.64 1004 10 16 0.00 0.00
5:51 pm 17:51 Sunny 83 28.3 21 -6.1 10 10 WSW 14 22 29.65 1004 10 16 0.00 0.00
6:51 pm 18:51 Sunny 80 26.7 18 -7.8 10 10 WSW 17 28 29.67 1005 10 16 0.00 0.00
7:51 pm 19:51 Clear 76 24.4 25 -3.9 15 15 WNW 6 9 29.70 1006 10 16 0.00 0.00
8:51 pm 20:51 Clear 70 21.1 27 -2.8 20 20 NW 8 13 29.74 1007 10 16 0.00 0.00
9:51 pm 21:51 Clear 69 20.6 27 -2.8 21 21 NNW 9 15 29.77 1008 10 16 0.00 0.00
10:51 pm 22:51 Clear 68 20 32 0 26 26 NNW 10 17 29.78 1009 10 16 0.00 0.00
11:51 pm 23:51 Clear 64 17.8 31 -0.6 29 29 NNW 7 11 29.79 1009 10 16 0.00 0.00

Powered by AerisWeather